Regional Weather Roundup
Issued by NWS Albany, NY

Current Version | Previous Version | Graphics & Text | Print | Product List | Glossary Off
Versions: 1 2 3 4 5 6 7 8 9 10 11 12 13 14 15 16 17 18 19 20 21 22 23 24 25 26 27 28 29 30 31 32 33 34 35 36 37 38 39 40 41 42 43 44 45 46 47 48 49 50

000
ASUS41 KALY 211210
RWRALY

NEW YORK STATE HOURLY WEATHER ROUNDUP
NATIONAL WEATHER SERVICE ALBANY NY
800 AM EDT THU AUG 21 2014

NOTE: "FAIR" INDICATES FEW OR NO CLOUDS BELOW 12,000 FEET WITH NO
SIGNIFICANT WEATHER AND/OR NO OBSTRUCTIONS TO VISIBILITY.

NYZ032-033-038>043-046>054-057>066-NYZ062>081-211300-
EAST


CITY           SKY/WX    TMP DP  RH WIND       PRES   REMARKS
ALBANY         CLOUDY    66  63  90 E3        30.04S
GLENS FALLS    LGT RAIN  65  64  97 CALM      30.05R FOG
POUGHKEEPSIE   CLOUDY    66  63  90 SE3       30.05R
NEWBURGH       PTSUNNY   66  64  94 CALM      30.08R
MONTGOMERY     CLOUDY    66  62  87 CALM      30.06R
WHITE PLAINS   MOSUNNY   70  63  78 CALM      30.06R
ISLIP          PTSUNNY   69  62  78 E5        30.04S
NEW YORK CITY  PTSUNNY   71  62  73 VRB5      30.05R
CENTRAL PARK   MOSUNNY   69  63  81 CALM      30.09R
$$

NYZ005>009-017-018-044>046-055-056-211300-
CENTRAL


CITY           SKY/WX    TMP DP  RH WIND       PRES   REMARKS
FULTON         MOSUNNY   69  67  93 VRB3      29.98S FOG
SYRACUSE       PTSUNNY   66  66 100 E3        29.98R FOG
ROME           CLOUDY    69  68  96 SE3       30.01R
ELMIRA         CLOUDY    64  64 100 CALM      30.02R FOG
BINGHAMTON     PTSUNNY   66  64  93 S5        30.05S FOG
MONTICELLO     CLOUDY    63  63 100 SE5       30.09S
$$

NYZ026>034-041>043-211300-
NORTH


CITY           SKY/WX    TMP DP  RH WIND       PRES   REMARKS
WATERTOWN      PTSUNNY   70  64  81 CALM      29.96S
FORT DRUM      NOT AVBL
MASSENA        CLOUDY    67  66  97 NE7       30.01R
SARANAC LAKE   CLOUDY    63  62  97 E3        30.04S
PLATTSBURGH    CLOUDY    66  64  93 S8        30.03R
$$

NYZ001>004-010>016-019>021-211300-
WEST


CITY           SKY/WX    TMP DP  RH WIND       PRES   REMARKS
NIAGARA FALLS  MOSUNNY   69  67  93 SW8       29.96S
BUFFALO        PTSUNNY   71  66  84 SW8       29.97S
DUNKIRK        PTSUNNY   70  66  87 S8        30.00R
JAMESTOWN      CLOUDY    64  59  82 SW7       30.05R
WELLSVILLE     MOSUNNY   66  62  87 SW9       30.07R
ROCHESTER      MOSUNNY   67  64  90 S3        29.98R
PENN YAN       PTSUNNY   68  65  90 SW6       30.01R
$$

             KEY
       WCI = WIND CHILL INDEX
       VSB = VISIBILITY
       HX  = HEAT INDEX
$$


USA.gov is the U.S. government's official web portal to all federal, state and local government web resources and services.